(389) Industria
ephemeris date magn radius delta ra dec elong phase
Today22 Jun 202612.52.682 AU1.981 AU21h47m-08°09'123.7°18.4°
Opposition11 Aug 202611.62.711 AU1.704 AU21h17m-07°35'172.1°2.9°
(389) Industria - 2026-06-22
astro.vanbuitenen.nl


 
-1 year
-1 month
-1 day
Now
+1 day
+1 month
+1 year

The interactive orbit chart above shows the body's path through the solar system and its position at the given date. Green and blue lines are shown perpendicular to the ecliptic plane: Green if the path is above the ecliptic plane, blue if it is below. (Left-click and drag to rotate the view; Right-click and drag to move the view; Use scroll wheel to zoom in our out.)

The orbital elements of Industria are:

            e (Eccentricity)                : 0.0665169
            a (Semimajor axis)              : 2.6085992
            i (Inclination)                 : 8.12320
            Ω (Longitude of ascending node) : 282.02116
            ω (Argument of perihelion)      : 267.95453
            M (Mean anomaly)                : 108.34839
            Epoch                           : 2026 Jun 09

            L (Longitude of perihelion)     : 9.95498
            B (Latitude of perihelion)      : -8.11799
            P (Orbital period in years)     : 4.21            
        

The light curve chart below shows the estimated development of the minor planet's magnitude.


The all-sky chart below shows the path of the minor planet over the same period as the light curve. The current position is marked yellow.





The following chart shows the path of the minor planet in the next few days. The field of view is optimized for (~10x50) binoculars and finderscopes.




Ephemerides:
Date       Time       RA (2000)    DEC (2000)    delta   radius  elong  phase   PA    magn
2026-06-22 00:00 UT   21 47 50.1   -08 09 34     1.981    2.682  123.7   18.4   247   12.5 
2026-06-22 04:44 UT   21 47 49.3   -08 08 50     1.979    2.682  123.9   18.3   247   12.5 
2026-06-23 00:00 UT   21 47 45.3   -08 05 53     1.970    2.682  124.7   18.2   247   12.5 
2026-06-24 00:00 UT   21 47 39.0   -08 02 20     1.960    2.683  125.6   17.9   247   12.5 
2026-06-25 00:00 UT   21 47 31.3   -07 58 53     1.951    2.683  126.6   17.7   247   12.5 
2026-06-26 00:00 UT   21 47 22.0   -07 55 33     1.941    2.684  127.5   17.5   247   12.5 
2026-06-27 00:00 UT   21 47 11.2   -07 52 21     1.931    2.685  128.5   17.2   246   12.4 
2026-06-28 00:00 UT   21 46 58.9   -07 49 15     1.922    2.685  129.5   17.0   246   12.4 
2026-06-29 00:00 UT   21 46 45.2   -07 46 17     1.912    2.686  130.5   16.7   246   12.4 
2026-06-30 00:00 UT   21 46 29.9   -07 43 26     1.903    2.686  131.4   16.5   246   12.4 
2026-07-01 00:00 UT   21 46 13.2   -07 40 42     1.894    2.687  132.4   16.2   246   12.4 
2026-07-02 00:00 UT   21 45 54.9   -07 38 06     1.885    2.688  133.4   15.9   245   12.3 
2026-07-03 00:00 UT   21 45 35.2   -07 35 37     1.877    2.688  134.4   15.7   245   12.3 
2026-07-04 00:00 UT   21 45 14.0   -07 33 16     1.868    2.689  135.4   15.4   245   12.3 
2026-07-05 00:00 UT   21 44 51.3   -07 31 03     1.860    2.690  136.4   15.1   245   12.3 
2026-07-06 00:00 UT   21 44 27.2   -07 28 57     1.852    2.690  137.5   14.8   244   12.3 
2026-07-07 00:00 UT   21 44 01.6   -07 26 58     1.844    2.691  138.5   14.5   244   12.2 
2026-07-08 00:00 UT   21 43 34.6   -07 25 08     1.836    2.691  139.5   14.2   244   12.2 
2026-07-09 00:00 UT   21 43 06.1   -07 23 25     1.828    2.692  140.6   13.9   243   12.2 
2026-07-10 00:00 UT   21 42 36.2   -07 21 50     1.821    2.693  141.6   13.6   243   12.2 
2026-07-11 00:00 UT   21 42 05.0   -07 20 23     1.814    2.693  142.6   13.2   243   12.2 
2026-07-12 00:00 UT   21 41 32.3   -07 19 04     1.806    2.694  143.7   12.9   242   12.1 
2026-07-13 00:00 UT   21 40 58.3   -07 17 53     1.800    2.694  144.7   12.6   242   12.1 
2026-07-14 00:00 UT   21 40 22.9   -07 16 49     1.793    2.695  145.8   12.2   242   12.1 
2026-07-15 00:00 UT   21 39 46.3   -07 15 53     1.787    2.696  146.9   11.9   241   12.1 
2026-07-16 00:00 UT   21 39 08.4   -07 15 06     1.780    2.696  147.9   11.6   241   12.1 
2026-07-17 00:00 UT   21 38 29.2   -07 14 25     1.774    2.697  149.0   11.2   240   12.0 
2026-07-18 00:00 UT   21 37 48.8   -07 13 53     1.769    2.697  150.1   10.8   240   12.0 
2026-07-19 00:00 UT   21 37 07.3   -07 13 28     1.763    2.698  151.1   10.5   239   12.0 
2026-07-20 00:00 UT   21 36 24.6   -07 13 11     1.758    2.698  152.2   10.1   238   12.0 
2026-07-21 00:00 UT   21 35 40.9   -07 13 01     1.753    2.699  153.3    9.7   238   12.0 
2026-07-22 00:00 UT   21 34 56.0   -07 12 58     1.748    2.700  154.4    9.4   237   11.9 


    Terminology:
            
    delta:  distance between minor planet and earth in AU
    radius: distance between minor planet and sun in AU
    magn:   magnitude (brightness) estimate    
    ra:     right ascension in hours (24h = 360deg)
    dec:    declination in degrees
    elong:  elongation in degrees (angle sun-earth-minor planet)    
    phase:  phase angle in degrees (angle sun-minor planet-earth)        
    AU:     Astronomical Unit (mean distance between earth and sun: 149597870.7 km
    

Orbital elements provided by the MPC (Minor Planet Center).
Calculations by a modified version of AAPlus, a C# implementation of the AA+ project by PJ Naughter from the algorithms presented in the book "Astronomical Algorithms" by Jean Meeus.
NGC2000 dso catalog and star labels from VizieR as provided by the Strasbourg astronomical Data Center.
Tycho2 catalog from the ESO archive.